Regional Weather Roundup
Issued by NWS

Home | Current Version | Previous Version | Text Only | Print | Product List | Glossary Off
Versions: 1 2 3 4 5 6 7 8 9 10 11 12 13 14 15 16 17 18 19 20 21 22 23 24 25 26 27 28 29 30 31 32 33 34 35 36 37 38 39 40 41 42 43 44 45 46 47 48 49 50

000
ASUS46 KSTO 291604
RWRCA

NORTHERN AND CENTRAL CA REGIONAL WEATHER ROUNDUP
NATIONAL WEATHER SERVICE SACRAMENTO CA
900 AM PDT SUN MAR 29 2015

NOTE: FAIR INDICATES FEW OR NO CLOUDS BELOW 12,000 FEET WITH NO
SIGNIFICANT WEATHER AND/OR OBSTRUCTIONS TO VISIBILITY.

CAZ001-003-291700-
NORTHWEST AREA

CITY           SKY/WX    TMP DP  RH WIND       PRES   REMARKS
CRESCENT CITY  MOSUNNY   51  50  96 NW6       30.27R FOG
UKIAH          SUNNY     51  44  77 CALM      30.17S
$$

CAZ006-505>513-291700-
BAY AREA

CITY           SKY/WX    TMP DP  RH WIND       PRES   REMARKS
SANTA ROSA     SUNNY     52  47  83 W3        30.12R
SAN RAFAEL     N/A       49  MM  MM MISG
NAPA           SUNNY     52  47  83 N5        30.13R
CONCORD        SUNNY     58  46  64 SW5       30.12R
OAKLAND CITY   N/A       52  MM  MM MISG
OAKLAND        MOSUNNY   58  52  80 CALM      30.12S
SAN FRAN CITY  N/A       56  MM  76 MISG
SAN FRAN ARPT  MOSUNNY   57  51  80 CALM      30.12S
LIVERMORE      SUNNY     55  44  66 CALM      30.11F
HAYWARD        SUNNY     60  49  66 CALM      30.12S
REDWOOD CITY   N/A       MM  MM  MM MISG
MOFFETT ARPT   SUNNY     58  49  72 CALM      30.12S
SAN JOSE ARPT  MOSUNNY   56  45  66 CALM      30.12S
$$
CAZ034-037-514>518-291700-
CENTRAL COAST

CITY           SKY/WX    TMP DP  RH WIND       PRES   REMARKS
WATSONVILLE    SUNNY     56  51  84 S3        30.12S
SALINAS        PTSUNNY   52  49  89 E5        30.12R
MONTEREY       CLOUDY    53  49  86 CALM      30.12S FOG
SAN LUIS OBISP SUNNY     61  51  70 NW7       30.06R
SANTA MARIA    MOSUNNY   59  52  77 NW5       30.06R HAZE
$$
CAZ015-016-291700-
NORTHERN SACRAMENTO VALLEY

CITY           SKY/WX    TMP DP  RH WIND       PRES   REMARKS
REDDING        SUNNY     66  38  35 NW7       30.10S
RED BLUFF      SUNNY     61  39  44 NE5       30.11R
OROVILLE       SUNNY     61  39  44 CALM      30.11R
$$
CAZ016>018-291700-
SOUTHERN SACRAMENTO VALLEY

CITY           SKY/WX    TMP DP  RH WIND       PRES   REMARKS
AUBURN         SUNNY     64  36  34 E7        30.10S
LINCOLN        FAIR      54  45  71 CALM      30.08S
MARYSVILLE     SUNNY     56  46  69 CALM      30.10R
SAC INTL ARPT  MOSUNNY   56  44  64 CALM      30.08S
MATHER AIRPORT SUNNY     54  48  82 MISG      30.09R
DOWNTOWN SAC   N/A       56  MM  MM MISG
SAC EXEC ARPT  SUNNY     56  45  66 CALM      30.09S
VACAVILLE      SUNNY     63  46  54 CALM      30.11R
$$
CAZ019>021-291700-
SAN JOAQUIN VALLEY

CITY           SKY/WX    TMP DP  RH WIND       PRES   REMARKS
STOCKTON       SUNNY     58  46  64 CALM      30.09R
MODESTO        SUNNY     61  45  55 NE3       30.09R
MERCED         SUNNY     62  47  57 CALM      30.09S
LEMOORE        SUNNY     63  38  39 W3        30.11R
FRESNO         MOSUNNY   63  47  55 CALM      30.10S
HANFORD        SUNNY     66  40  38 CALM      30.10S
PORTERVILLE    SUNNY     66  48  52 W6        30.10R
BAKERSFIELD    SUNNY     69  44  40 S5        30.09S
$$
CAZ011-012-071-291700-
NORTHERN MOUNTAINS

CITY           SKY/WX    TMP DP  RH WIND       PRES   REMARKS
YREKA          SUNNY     43  34  70 N5        30.30F
MOUNT SHASTA   SUNNY     53  31  42 VRB5      30.26R
ALTURAS        SUNNY     41  26  55 E3        30.29F
$$
CAZ011-012-071-291700-
SIERRA NEVADA MTNS

CITY           SKY/WX    TMP DP  RH WIND       PRES   REMARKS
BLUE CANYON    SUNNY     60  21  22 CALM      30.25R
TRUCKEE        MOSUNNY   34  21  60 CALM      30.31F
TAHOE VLY ARPT SUNNY     42  26  53 CALM      30.29F
MAMMOTH LAKES  FAIR      50  18  27 CALM      30.34
$$



USA.gov is the U.S. government's official web portal to all federal, state and local government web resources and services.